Regional Weather Roundup
Issued by NWS

Home | Current Version | Previous Version | Graphics & Text | Print | Product List | Glossary On
Versions: 1 2 3 4 5 6 7 8 9 10 11 12 13 14 15 16 17 18 19 20 21 22 23 24 25 26 27 28 29 30 31 32 33 34 35 36 37 38 39 40 41 42 43 44 45 46 47 48 49 50
898
ASUS45 KBOU 300307
RWRCO

WEATHER ROUNDUP FOR COLORADO
NATIONAL WEATHER SERVICE DENVER/BOULDER CO
900 PM MDT SAT APR 29 2017

NOTE: "FAIR" INDICATES FEW OR NO CLOUDS BELOW 12000 FEET WITH NO
SIGNIFICANT WEATHER AND/OR OBSTRUCTIONS TO VISIBILITY.

COZ001>005-013-030-031-300400-
...NORTHWEST COLORADO...

CITY           SKY/WX    TMP DP  RH WIND       PRES   REMARKS
CRAIG          MOCLDY    37  19  48 N17G23    30.14R
HAYDEN         CLOUDY    37  23  56 SE10      30.13R
MEEKER         FAIR      37  21  52 N18G25    30.14R
MOUNT WERNER   NOT AVBL
STEAMBOAT SPGS CLOUDY    34  20  56 E6        30.12R WCI  29
WALDEN           N/A     23  14  68 NW5       30.18R WCI  17
$$

COZ006>008-011-300400-
...WEST CENTRAL VALLEYS...

CITY           SKY/WX    TMP DP  RH WIND       PRES   REMARKS
GRAND JUNCTION FAIR      46  20  35 N13       30.10R
MONTROSE       CLOUDY    44  26  49 NW9       30.08R
EAGLE          FAIR      33  21  61 E3        30.15R
RIFLE          MOCLDY    42  26  53 CALM      30.11R
DELTA          FAIR      49  19  31 N12       30.07R
NUCLA          FAIR      43  18  36 N16       30.11R
$$

COZ017>023-064>068-300400-
...SOUTHWEST COLORADO...

CITY           SKY/WX    TMP DP  RH WIND       PRES   REMARKS
DURANGO        FAIR      34  30  85 CALM      30.00R
CORTEZ         FAIR      43  21  41 N10       30.03R
PAGOSA SPRINGS MOCLDY    37  20  51 NE5       30.02R
TELLURIDE      CLOUDY    31  20  64 NW10G16   30.08R WCI  22
WOLF CREEK PAS SNOW      12  12 100 N12       30.07R VSB 1/2 WCI  -2
$$

COZ009-010-012-014-032>034-037-058>063-300400-
...CENTRAL COLORADO...

CITY           SKY/WX    TMP DP  RH WIND       PRES   REMARKS
ASPEN          FAIR      30  19  63 NW3       30.08R
BUENA VISTA    CLOUDY    28  20  73 NE7       30.09S WCI  21
COPPER MTN     SNOW      19  12  73 MISG      30.08R VSB 1/4
BERTHOUD PASS  SNOW      10   0  61 N6        30.07R VSB<1/4 WCI   1
COTTONWOOD PAS FOG       27  25  93 CALM      30.08R VSB 1/4
GUNNISON       FAIR      34  24  67 S3        30.05R
KREMMLING      FAIR      34  28  80 CALM      30.14S
LEADVILLE      FAIR      19  14  81 N10       30.07R WCI   7
MONARCH PASS   CLOUDY    16  12  86 NE8       30.15R WCI   5
SALIDA         CLOUDY    31  27  84 CALM      30.17R
SUNLIGHT       MOCLDY    18  16  93 N5        30.15R WCI  11
WILKERSON PASS CLOUDY   N/A N/A N/A NE15G24   30.07S FOG
$$

COZ069>075-300400-
...SAN LUIS VALLEY/SANGRE DE CRISTO MOUNTAINS...

CITY           SKY/WX    TMP DP  RH WIND       PRES   REMARKS
ALAMOSA        FLURRIES  27  25  92 NW8       30.03R WCI  19
LA VETA PASS   SNOW      16  12  86 NE7G22    30.12S VSB 1/2 WCI   6
SAGUACHE       CLOUDY    32  18  55 NE16      30.03S WCI  21
$$

COZ035-036-038>040-300400-
...NORTHERN COLORADO FRONT RANGE...

CITY           SKY/WX    TMP DP  RH WIND       PRES   REMARKS
DENVER INTL AP FLURRIES  30  27  88 NW18      30.19S WCI  18
DMNS CITY PARK   N/A     29  29  97 MISG      30.23R
AURORA         LGT SNOW  28  28  99 NW14      30.20R FOG     WCI  17
FRONT RANGE AP LGT SNOW  30  28  93 NW9       30.20R WCI  22
ERIE MUNI ARPT CLOUDY    32  26  79 N5        30.22S WCI  27
BOULDER MUN AP MOCLDY    32  28  86 CALM      30.21S
CENTENNIAL     LGT SNOW  27  27 100 N16       30.19R FOG     WCI  15
BROOMFIELD     LGT SNOW  30  28  93 NW6       30.22R WCI  24
FORT COLLINS   FAIR      31  23  72 N6        30.21F WCI  25
LONGMONT       CLOUDY    35  24  64 N5        30.23S WCI  31
$$

COZ041-046-047-076>085-087-088-300400-
...PIKES PEAK/PALMER DIVIDE AND SOUTHERN FOOTHILLS...

CITY           SKY/WX    TMP DP  RH WIND       PRES   REMARKS
COLO. SPRINGS  CLOUDY    29  20  69 N25G36    30.09F WCI  14
A. F. ACADEMY  MIX PCPN  25  20  83 N21       30.10S WCI  10
SCHRIEVER AFB  CLOUDY    27  21  80 N28G43    30.05F WCI  11
ELLICOTT       LGT RAIN N/A N/A N/A N35G44    30.02F
FALCON         MOCLDY    25  19  80 N28G36    30.06F HAZE    WCI   8
FORT CARSON    FAIR      30  22  72 N30G49    30.05F WCI  15
LIMON          LGT SNOW  28  28 100 N22G30    30.10S FOG     WCI  14
MONUMENT HILL  CLOUDY    21  21 100 N16G23    30.15S FOG     WCI   7
TRINIDAD       FLURRIES  28  23  81 N24G32    30.09R WCI  14
$$

COZ042>045-048>051-090-091-300400-
...NORTHEAST COLORADO...

CITY           SKY/WX    TMP DP  RH WIND       PRES   REMARKS
GREELEY ARPT   MOCLDY    35  25  66 NW10      30.22S WCI  27
AKRON          CLOUDY    37  23  56 N22G30    30.13R
BURLINGTON     NOT AVBL
WRAY           NOT AVBL
STERLING       CLOUDY    41  23  48 N21G26    30.14R
HOLYOKE        FAIR      43  23  45 N12       30.12R
FORT MORGAN    CLOUDY    38  22  52 N14       30.17S
$$

COZ086-089-092>099-300400-
...SOUTHEAST COLORADO...

CITY           SKY/WX    TMP DP  RH WIND       PRES   REMARKS
PUEBLO         CLOUDY    34  25  69 N20       30.10F WCI  23
LA JUNTA       FLURRIES  35  30  82 N23G31    30.06S WCI  23
LAMAR          LGT SNOW  33  31  92 N22       30.00R FOG     WCI  21
SPRINGFIELD      N/A     30  30 100 N32G41    29.94R WCI  14
$$




USA.gov is the U.S. government's official web portal to all federal, state and local government web resources and services.